Terminal Aerodrome Forecast
Issued by NWS Corpus Christi, TX

Current Version | Previous Version | Text Only | Print | Product List | Glossary Off
Versions: 1 2 3 4 5 6 7 8 9 10 11 12 13 14 15 16 17 18 19 20 21 22

396
FTUS44 KCRP 251010 AAA
TAFVCT
TAF AMD
KVCT 251010Z 2510/2606 16004KT 5SM BR OVC025
     FM251500 15010G16KT P6SM SCT020 BKN025
     FM252000 14015G22KT P6SM BKN035 OVC040
     FM260100 13009KT P6SM BKN015=

USA.gov is the U.S. government's official web portal to all federal, state and local government web resources and services.